Time,TemperatureF,DewpointF,PressureIn,WindDirection,WindDirectionDegrees,WindSpeedMPH,WindSpeedGustMPH,Humidity,HourlyPrecipIn,Conditions,Clouds,dailyrainin,SoftwareType,DateUTC
2013-11-21 00:00:00,43.1,38.9,30.48,NE,36,0.0,0.0,85,0.00,,,0.00,Wunderground v.1.15,2013-11-21 05:00:00,
2013-11-21 00:05:00,43.0,38.8,30.47,NE,36,0.0,0.0,85,0.00,,,0.00,Wunderground v.1.15,2013-11-21 05:05:00,
2013-11-21 00:10:00,42.8,38.6,30.47,NE,36,0.0,0.0,85,0.00,,,0.00,Wunderground v.1.15,2013-11-21 05:10:00,
2013-11-21 00:15:00,42.6,38.7,30.47,NE,36,0.0,0.0,86,0.00,,,0.00,Wunderground v.1.15,2013-11-21 05:15:00,
2013-11-21 00:20:00,42.5,38.6,30.47,NE,36,0.0,0.0,86,0.00,,,0.00,Wunderground v.1.15,2013-11-21 05:20:00,
2013-11-21 00:25:00,42.5,38.6,30.47,NE,36,0.0,0.0,86,0.00,,,0.00,Wunderground v.1.15,2013-11-21 05:25:00,
2013-11-21 00:35:00,42.5,38.9,30.47,NE,36,0.0,0.0,87,0.00,,,0.00,Wunderground v.1.15,2013-11-21 05:35:00,
2013-11-21 00:40:00,42.5,38.9,30.48,NE,34,0.0,0.0,87,0.00,,,0.00,Wunderground v.1.15,2013-11-21 05:40:00,
2013-11-21 00:45:00,42.4,38.8,30.48,NE,34,0.0,0.0,87,0.00,,,0.00,Wunderground v.1.15,2013-11-21 05:45:00,
2013-11-21 00:50:00,42.3,38.7,30.47,NE,34,0.0,0.0,87,0.00,,,0.00,Wunderground v.1.15,2013-11-21 05:50:00,
2013-11-21 00:55:00,42.2,38.6,30.48,NE,34,0.0,0.0,87,0.00,,,0.00,Wunderground v.1.15,2013-11-21 05:55:00,
2013-11-21 01:00:00,42.1,38.5,30.48,NNE,32,0.0,0.0,87,0.00,,,0.00,Wunderground v.1.15,2013-11-21 06:00:00,
2013-11-21 01:05:00,42.1,38.8,30.48,NNE,32,0.0,0.0,88,0.00,,,0.00,Wunderground v.1.15,2013-11-21 06:05:00,
2013-11-21 01:10:00,42.1,38.8,30.48,NNE,32,0.0,0.0,88,0.00,,,0.00,Wunderground v.1.15,2013-11-21 06:10:00,
2013-11-21 01:15:00,42.1,38.8,30.48,NNE,30,0.0,0.0,88,0.00,,,0.00,Wunderground v.1.15,2013-11-21 06:15:00,
2013-11-21 01:20:00,42.2,38.9,30.49,NNE,14,0.0,0.0,88,0.00,,,0.00,Wunderground v.1.15,2013-11-21 06:20:00,
2013-11-21 01:25:00,42.2,38.9,30.49,NNE,12,0.0,0.0,88,0.00,,,0.00,Wunderground v.1.15,2013-11-21 06:25:00,
2013-11-21 01:30:00,42.3,39.0,30.49,North,9,0.0,0.0,88,0.00,,,0.00,Wunderground v.1.15,2013-11-21 06:30:00,
2013-11-21 01:35:00,42.4,39.1,30.49,North,9,0.0,0.0,88,0.00,,,0.00,Wunderground v.1.15,2013-11-21 06:35:00,
2013-11-21 01:45:00,42.3,39.0,30.49,North,9,0.0,0.0,88,0.00,,,0.00,Wunderground v.1.15,2013-11-21 06:45:00,
2013-11-21 01:50:00,42.4,39.1,30.49,North,9,0.0,0.0,88,0.00,,,0.00,Wunderground v.1.15,2013-11-21 06:50:00,
2013-11-21 01:55:00,42.4,39.1,30.49,North,9,0.0,0.0,88,0.00,,,0.00,Wunderground v.1.15,2013-11-21 06:55:00,
2013-11-21 02:00:00,42.5,39.2,30.49,North,9,0.0,0.0,88,0.00,,,0.00,Wunderground v.1.15,2013-11-21 07:00:00,
2013-11-21 02:10:00,42.7,39.4,30.49,North,10,0.0,0.0,88,0.00,,,0.00,Wunderground v.1.15,2013-11-21 07:10:00,
2013-11-21 02:20:00,42.8,39.2,30.48,North,9,0.0,0.0,87,0.00,,,0.00,Wunderground v.1.15,2013-11-21 07:20:00,
2013-11-21 02:25:00,42.7,39.1,30.48,NE,48,0.0,0.0,87,0.00,,,0.00,Wunderground v.1.15,2013-11-21 07:25:00,
2013-11-21 02:30:00,42.7,39.1,30.48,ENE,59,1.0,3.0,87,0.00,,,0.00,Wunderground v.1.15,2013-11-21 07:30:00,
2013-11-21 02:35:00,42.7,39.1,30.48,ENE,67,1.0,3.0,87,0.00,,,0.00,Wunderground v.1.15,2013-11-21 07:35:00,
2013-11-21 02:40:00,42.7,39.1,30.48,NNE,17,1.0,1.0,87,0.00,,,0.00,Wunderground v.1.15,2013-11-21 07:40:00,
2013-11-21 02:45:00,42.7,39.1,30.48,NNW,344,1.0,1.0,87,0.00,,,0.00,Wunderground v.1.15,2013-11-21 07:45:00,
2013-11-21 02:50:00,42.8,39.2,30.48,NW,319,1.0,1.0,87,0.00,,,0.00,Wunderground v.1.15,2013-11-21 07:50:00,
2013-11-21 03:00:00,42.8,39.2,30.48,NW,321,0.0,0.0,87,0.00,,,0.00,Wunderground v.1.15,2013-11-21 08:00:00,
2013-11-21 03:10:00,42.9,39.3,30.48,NW,321,0.0,0.0,87,0.00,,,0.00,Wunderground v.1.15,2013-11-21 08:10:00,
2013-11-21 03:15:00,42.9,39.3,30.48,NW,324,0.0,0.0,87,0.00,,,0.00,Wunderground v.1.15,2013-11-21 08:15:00,
2013-11-21 03:20:00,43.0,39.4,30.48,NW,323,1.0,1.0,87,0.00,,,0.00,Wunderground v.1.15,2013-11-21 08:20:00,
2013-11-21 03:25:00,43.0,39.4,30.49,NW,323,0.0,1.0,87,0.00,,,0.00,Wunderground v.1.15,2013-11-21 08:25:00,
2013-11-21 03:35:00,42.9,39.3,30.48,NW,325,1.0,2.0,87,0.00,,,0.00,Wunderground v.1.15,2013-11-21 08:35:00,
2013-11-21 03:45:00,42.8,39.2,30.48,NW,325,1.0,6.0,87,0.00,,,0.00,Wunderground v.1.15,2013-11-21 08:45:00,
2013-11-21 03:50:00,42.7,39.1,30.48,NW,316,1.0,1.0,87,0.00,,,0.00,Wunderground v.1.15,2013-11-21 08:50:00,
2013-11-21 03:55:00,42.7,39.1,30.48,NNW,338,1.0,1.0,87,0.00,,,0.00,Wunderground v.1.15,2013-11-21 08:55:00,
2013-11-21 04:00:00,42.6,39.0,30.48,NNW,339,1.0,1.0,87,0.00,,,0.00,Wunderground v.1.15,2013-11-21 09:00:00,
2013-11-21 04:10:00,42.5,38.9,30.48,NNW,341,0.0,0.0,87,0.00,,,0.00,Wunderground v.1.15,2013-11-21 09:10:00,
2013-11-21 04:20:00,42.4,38.8,30.48,NNW,336,0.0,0.0,87,0.00,,,0.00,Wunderground v.1.15,2013-11-21 09:20:00,
2013-11-21 04:25:00,42.4,38.8,30.48,NNW,336,0.0,4.0,87,0.00,,,0.00,Wunderground v.1.15,2013-11-21 09:25:00,
2013-11-21 04:30:00,42.4,38.8,30.47,NNW,336,0.0,0.0,87,0.00,,,0.00,Wunderground v.1.15,2013-11-21 09:30:00,
2013-11-21 04:35:00,42.4,38.8,30.47,NNW,340,0.0,0.0,87,0.00,,,0.00,Wunderground v.1.15,2013-11-21 09:35:00,
2013-11-21 04:40:00,42.3,38.7,30.47,NW,320,1.0,1.0,87,0.00,,,0.00,Wunderground v.1.15,2013-11-21 09:40:00,
2013-11-21 04:45:00,42.3,38.7,30.48,NW,319,1.0,1.0,87,0.00,,,0.00,Wunderground v.1.15,2013-11-21 09:45:00,
2013-11-21 04:55:00,42.3,38.7,30.49,WNW,296,1.0,1.0,87,0.00,,,0.00,Wunderground v.1.15,2013-11-21 09:55:00,
2013-11-21 05:00:00,42.3,38.7,30.49,WNW,297,1.0,1.0,87,0.00,,,0.00,Wunderground v.1.15,2013-11-21 10:00:00,
2013-11-21 05:10:00,42.2,38.6,30.49,NW,304,0.0,0.0,87,0.00,,,0.00,Wunderground v.1.15,2013-11-21 10:10:00,
2013-11-21 05:20:00,42.2,38.6,30.48,NW,311,1.0,1.0,87,0.00,,,0.00,Wunderground v.1.15,2013-11-21 10:20:00,
2013-11-21 05:25:00,42.3,38.7,30.48,NW,313,0.0,5.0,87,0.00,,,0.00,Wunderground v.1.15,2013-11-21 10:25:00,
2013-11-21 05:35:00,42.2,38.6,30.49,NW,313,1.0,1.0,87,0.00,,,0.00,Wunderground v.1.15,2013-11-21 10:35:00,
2013-11-21 05:40:00,42.3,38.7,30.49,NW,312,1.0,4.0,87,0.00,,,0.00,Wunderground v.1.15,2013-11-21 10:40:00,
2013-11-21 05:45:00,42.2,38.6,30.49,NNW,329,1.0,4.0,87,0.00,,,0.00,Wunderground v.1.15,2013-11-21 10:45:00,
2013-11-21 05:50:00,42.2,38.6,30.49,NW,309,1.0,1.0,87,0.00,,,0.00,Wunderground v.1.15,2013-11-21 10:50:00,
2013-11-21 05:55:00,42.2,38.6,30.50,NW,309,1.0,1.0,87,0.00,,,0.00,Wunderground v.1.15,2013-11-21 10:55:00,
2013-11-21 06:05:00,42.3,38.7,30.50,NW,309,0.0,0.0,87,0.00,,,0.00,Wunderground v.1.15,2013-11-21 11:05:00,
2013-11-21 06:10:00,42.3,38.7,30.49,NW,309,0.0,2.0,87,0.00,,,0.00,Wunderground v.1.15,2013-11-21 11:10:00,
2013-11-21 06:15:00,42.3,38.7,30.49,NW,309,0.0,2.0,87,0.00,,,0.00,Wunderground v.1.15,2013-11-21 11:15:00,
2013-11-21 06:20:00,42.3,38.7,30.49,NW,312,0.0,0.0,87,0.00,,,0.00,Wunderground v.1.15,2013-11-21 11:20:00,
2013-11-21 06:25:00,42.3,38.7,30.50,NW,306,1.0,8.0,87,0.00,,,0.00,Wunderground v.1.15,2013-11-21 11:25:00,
2013-11-21 06:30:00,42.3,38.7,30.50,West,275,2.0,2.0,87,0.00,,,0.00,Wunderground v.1.15,2013-11-21 11:30:00,
2013-11-21 06:40:00,42.4,38.8,30.50,West,275,0.0,0.0,87,0.00,,,0.00,Wunderground v.1.15,2013-11-21 11:40:00,
2013-11-21 06:45:00,42.4,38.8,30.51,West,275,0.0,0.0,87,0.00,,,0.00,Wunderground v.1.15,2013-11-21 11:45:00,
2013-11-21 06:50:00,42.4,38.8,30.51,West,275,0.0,0.0,87,0.00,,,0.00,Wunderground v.1.15,2013-11-21 11:50:00,
2013-11-21 06:55:00,42.5,38.9,30.51,West,275,0.0,0.0,87,0.00,,,0.00,Wunderground v.1.15,2013-11-21 11:55:00,
2013-11-21 07:00:00,42.6,39.0,30.51,West,275,0.0,0.0,87,0.00,,,0.00,Wunderground v.1.15,2013-11-21 12:00:00,
2013-11-21 07:10:00,42.7,39.1,30.51,West,278,0.0,0.0,87,0.00,,,0.00,Wunderground v.1.15,2013-11-21 12:10:00,
2013-11-21 07:15:00,42.7,39.1,30.51,West,278,0.0,0.0,87,0.00,,,0.00,Wunderground v.1.15,2013-11-21 12:15:00,
2013-11-21 07:20:00,42.7,39.1,30.51,West,279,0.0,0.0,87,0.00,,,0.00,Wunderground v.1.15,2013-11-21 12:20:00,
2013-11-21 07:25:00,42.7,39.1,30.50,West,281,1.0,1.0,87,0.00,,,0.00,Wunderground v.1.15,2013-11-21 12:25:00,
2013-11-21 07:30:00,42.8,39.2,30.51,WNW,291,1.0,1.0,87,0.00,,,0.00,Wunderground v.1.15,2013-11-21 12:30:00,
2013-11-21 07:35:00,42.8,39.2,30.51,WNW,291,1.0,2.0,87,0.00,,,0.00,Wunderground v.1.15,2013-11-21 12:35:00,
2013-11-21 07:40:00,42.9,39.3,30.52,WNW,294,1.0,1.0,87,0.00,,,0.00,Wunderground v.1.15,2013-11-21 12:40:00,
2013-11-21 07:45:00,42.9,39.3,30.51,WNW,294,1.0,1.0,87,0.00,,,0.00,Wunderground v.1.15,2013-11-21 12:45:00,
2013-11-21 07:55:00,43.2,39.6,30.51,WNW,296,0.0,0.0,87,0.00,,,0.00,Wunderground v.1.15,2013-11-21 12:55:00,
2013-11-21 08:00:00,43.2,39.3,30.51,WNW,296,0.0,0.0,86,0.00,,,0.00,Wunderground v.1.15,2013-11-21 13:00:00,
2013-11-21 08:10:00,43.0,39.1,30.51,WNW,300,1.0,1.0,86,0.00,,,0.00,Wunderground v.1.15,2013-11-21 13:10:00,
2013-11-21 08:15:00,43.1,39.5,30.51,WNW,298,1.0,1.0,87,0.00,,,0.00,Wunderground v.1.15,2013-11-21 13:15:00,
2013-11-21 08:20:00,43.4,39.8,30.51,WNW,298,1.0,1.0,87,0.00,,,0.00,Wunderground v.1.15,2013-11-21 13:20:00,
2013-11-21 08:30:00,44.1,39.9,30.50,North,355,1.0,1.0,85,0.00,,,0.00,Wunderground v.1.15,2013-11-21 13:30:00,
2013-11-21 08:35:00,44.5,40.0,30.50,NE,50,1.0,1.0,84,0.00,,,0.00,Wunderground v.1.15,2013-11-21 13:35:00,
2013-11-21 08:40:00,44.9,40.4,30.50,NNW,331,1.0,1.0,84,0.00,,,0.00,Wunderground v.1.15,2013-11-21 13:40:00,
2013-11-21 08:45:00,45.2,40.7,30.51,NW,317,1.0,5.0,84,0.00,,,0.00,Wunderground v.1.15,2013-11-21 13:45:00,
2013-11-21 08:50:00,45.1,40.6,30.52,WNW,288,2.0,2.0,84,0.00,,,0.00,Wunderground v.1.15,2013-11-21 13:50:00,
2013-11-21 08:55:00,45.2,40.7,30.53,WNW,290,3.0,4.0,84,0.00,,,0.00,Wunderground v.1.15,2013-11-21 13:55:00,
2013-11-21 09:00:00,45.4,40.8,30.54,WNW,284,3.0,3.0,84,0.00,,,0.00,Wunderground v.1.15,2013-11-21 14:00:00,
2013-11-21 09:10:00,46.0,41.4,30.53,NW,316,2.0,2.0,84,0.00,,,0.00,Wunderground v.1.15,2013-11-21 14:10:00,
2013-11-21 09:15:00,46.6,41.7,30.53,NW,316,1.0,2.0,83,0.00,,,0.00,Wunderground v.1.15,2013-11-21 14:15:00,
2013-11-21 09:20:00,46.9,42.0,30.53,NW,319,1.0,1.0,83,0.00,,,0.00,Wunderground v.1.15,2013-11-21 14:20:00,
2013-11-21 09:25:00,47.1,41.9,30.53,NW,311,1.0,4.0,82,0.00,,,0.00,Wunderground v.1.15,2013-11-21 14:25:00,
2013-11-21 09:30:00,47.4,41.9,30.53,NW,317,1.0,1.0,81,0.00,,,0.00,Wunderground v.1.15,2013-11-21 14:30:00,
2013-11-21 09:35:00,48.3,44.0,30.53,ENE,60,1.0,1.0,85,0.00,,,0.00,Wunderground v.1.15,2013-11-21 14:35:00,
2013-11-21 09:45:00,48.7,42.8,30.53,NNW,344,1.0,1.0,80,0.00,,,0.00,Wunderground v.1.15,2013-11-21 14:45:00,
2013-11-21 09:50:00,49.1,42.9,30.53,NNW,328,1.0,1.0,79,0.00,,,0.00,Wunderground v.1.15,2013-11-21 14:50:00,
2013-11-21 09:55:00,49.3,43.1,30.53,NNW,339,1.0,1.0,79,0.00,,,0.00,Wunderground v.1.15,2013-11-21 14:55:00,
2013-11-21 10:00:00,49.8,42.9,30.52,West,280,1.0,1.0,77,0.00,,,0.00,Wunderground v.1.15,2013-11-21 15:00:00,
2013-11-21 10:10:00,50.3,43.0,30.52,NNW,331,1.0,1.0,76,0.00,,,0.00,Wunderground v.1.15,2013-11-21 15:10:00,
2013-11-21 10:20:00,50.1,42.8,30.52,NE,39,2.0,2.0,76,0.00,,,0.00,Wunderground v.1.15,2013-11-21 15:20:00,
2013-11-21 10:25:00,50.5,43.9,30.51,NW,304,1.0,2.0,78,0.00,,,0.00,Wunderground v.1.15,2013-11-21 15:25:00,
2013-11-21 10:30:00,51.0,43.4,30.51,ENE,65,1.0,1.0,75,0.00,,,0.00,Wunderground v.1.15,2013-11-21 15:30:00,
2013-11-21 10:35:00,51.8,43.8,30.51,North,360,1.0,1.0,74,0.00,,,0.00,Wunderground v.1.15,2013-11-21 15:35:00,
2013-11-21 10:40:00,51.7,43.7,30.51,WNW,297,1.0,5.0,74,0.00,,,0.00,Wunderground v.1.15,2013-11-21 15:40:00,
2013-11-21 10:45:00,51.4,44.1,30.51,North,355,2.0,5.0,76,0.00,,,0.00,Wunderground v.1.15,2013-11-21 15:45:00,
2013-11-21 10:50:00,52.4,44.4,30.51,NNE,25,1.0,1.0,74,0.00,,,0.00,Wunderground v.1.15,2013-11-21 15:50:00,
2013-11-21 11:00:00,52.6,44.9,30.50,NW,323,1.0,4.0,75,0.00,,,0.00,Wunderground v.1.15,2013-11-21 16:00:00,
2013-11-21 11:10:00,53.2,44.8,30.50,North,355,1.0,5.0,73,0.00,,,0.00,Wunderground v.1.15,2013-11-21 16:10:00,
2013-11-21 11:15:00,54.4,45.6,30.50,North,355,0.0,5.0,72,0.00,,,0.00,Wunderground v.1.15,2013-11-21 16:15:00,
2013-11-21 11:20:00,54.3,45.5,30.50,North,355,1.0,1.0,72,0.00,,,0.00,Wunderground v.1.15,2013-11-21 16:20:00,
2013-11-21 11:25:00,54.4,45.9,30.50,WNW,297,1.0,2.0,73,0.00,,,0.00,Wunderground v.1.15,2013-11-21 16:25:00,
2013-11-21 11:35:00,55.3,46.1,30.50,NW,317,1.0,1.0,71,0.00,,,0.00,Wunderground v.1.15,2013-11-21 16:35:00,
2013-11-21 11:40:00,54.9,46.0,30.50,NW,309,1.0,1.0,72,0.00,,,0.00,Wunderground v.1.15,2013-11-21 16:40:00,
2013-11-21 11:45:00,56.4,47.5,30.49,NW,309,1.0,1.0,72,0.00,,,0.00,Wunderground v.1.15,2013-11-21 16:45:00,
2013-11-21 11:50:00,57.5,46.6,30.49,WNW,300,0.0,0.0,67,0.00,,,0.00,Wunderground v.1.15,2013-11-21 16:50:00,
2013-11-21 11:55:00,56.7,46.6,30.49,NNW,338,1.0,1.0,69,0.00,,,0.00,Wunderground v.1.15,2013-11-21 16:55:00,
2013-11-21 12:00:00,56.3,47.0,30.48,NNW,342,1.0,4.0,71,0.00,,,0.00,Wunderground v.1.15,2013-11-21 17:00:00,
2013-11-21 12:10:00,56.9,47.2,30.48,NW,305,1.0,4.0,70,0.00,,,0.00,Wunderground v.1.15,2013-11-21 17:10:00,
2013-11-21 12:15:00,56.4,47.5,30.48,NW,321,1.0,4.0,72,0.00,,,0.00,Wunderground v.1.15,2013-11-21 17:15:00,
2013-11-21 12:20:00,56.4,47.1,30.48,NW,309,2.0,2.0,71,0.00,,,0.00,Wunderground v.1.15,2013-11-21 17:20:00,
2013-11-21 12:25:00,56.9,47.2,30.48,NW,311,2.0,2.0,70,0.00,,,0.00,Wunderground v.1.15,2013-11-21 17:25:00,
2013-11-21 12:30:00,56.9,47.2,30.48,West,267,1.0,1.0,70,0.00,,,0.00,Wunderground v.1.15,2013-11-21 17:30:00,
2013-11-21 12:35:00,56.9,47.6,30.48,NW,305,1.0,1.0,71,0.00,,,0.00,Wunderground v.1.15,2013-11-21 17:35:00,
2013-11-21 12:45:00,57.2,47.5,30.47,NW,311,0.0,1.0,70,0.00,,,0.00,Wunderground v.1.15,2013-11-21 17:45:00,
2013-11-21 12:50:00,57.5,48.2,30.47,NW,304,0.0,0.0,71,0.00,,,0.00,Wunderground v.1.15,2013-11-21 17:50:00,
2013-11-21 12:55:00,57.6,47.9,30.47,NW,312,0.0,0.0,70,0.00,,,0.00,Wunderground v.1.15,2013-11-21 17:55:00,
2013-11-21 13:00:00,57.8,48.1,30.46,NW,318,1.0,2.0,70,0.00,,,0.00,Wunderground v.1.15,2013-11-21 18:00:00,
2013-11-21 13:10:00,58.3,48.9,30.46,NW,318,1.0,1.0,71,0.00,,,0.00,Wunderground v.1.15,2013-11-21 18:10:00,
2013-11-21 13:20:00,59.2,49.0,30.46,NW,322,1.0,1.0,69,0.00,,,0.00,Wunderground v.1.15,2013-11-21 18:20:00,
2013-11-21 13:25:00,59.5,48.9,30.45,NW,322,0.0,1.0,68,0.00,,,0.00,Wunderground v.1.15,2013-11-21 18:25:00,
2013-11-21 13:30:00,59.5,48.5,30.45,North,360,0.0,1.0,67,0.00,,,0.00,Wunderground v.1.15,2013-11-21 18:30:00,
2013-11-21 13:35:00,59.1,48.9,30.45,North,5,1.0,1.0,69,0.00,,,0.00,Wunderground v.1.15,2013-11-21 18:35:00,
2013-11-21 13:40:00,59.7,49.1,30.45,North,9,1.0,1.0,68,0.00,,,0.00,Wunderground v.1.15,2013-11-21 18:40:00,
2013-11-21 13:45:00,59.8,49.2,30.45,NNE,15,0.0,1.0,68,0.00,,,0.00,Wunderground v.1.15,2013-11-21 18:45:00,
2013-11-21 13:50:00,60.2,49.2,30.45,ESE,118,1.0,1.0,67,0.00,,,0.00,Wunderground v.1.15,2013-11-21 18:50:00,
2013-11-21 14:00:00,60.2,48.8,30.44,ESE,103,1.0,1.0,66,0.00,,,0.00,Wunderground v.1.15,2013-11-21 19:00:00,
2013-11-21 14:10:00,61.6,49.7,30.43,East,99,0.0,0.0,65,0.00,,,0.00,Wunderground v.1.15,2013-11-21 19:10:00,
2013-11-21 14:15:00,61.2,49.3,30.43,East,98,1.0,1.0,65,0.00,,,0.00,Wunderground v.1.15,2013-11-21 19:15:00,
2013-11-21 14:20:00,61.3,49.8,30.43,East,92,0.0,0.0,66,0.00,,,0.00,Wunderground v.1.15,2013-11-21 19:20:00,
2013-11-21 14:25:00,61.2,49.7,30.42,East,92,0.0,4.0,66,0.00,,,0.00,Wunderground v.1.15,2013-11-21 19:25:00,
2013-11-21 14:35:00,61.4,50.3,30.42,East,94,1.0,1.0,67,0.00,,,0.00,Wunderground v.1.15,2013-11-21 19:35:00,
2013-11-21 14:40:00,62.2,50.3,30.42,East,79,0.0,4.0,65,0.00,,,0.00,Wunderground v.1.15,2013-11-21 19:40:00,
2013-11-21 14:45:00,61.8,50.3,30.43,ENE,78,1.0,4.0,66,0.00,,,0.00,Wunderground v.1.15,2013-11-21 19:45:00,
2013-11-21 14:50:00,61.5,50.4,30.43,ENE,78,0.0,0.0,67,0.00,,,0.00,Wunderground v.1.15,2013-11-21 19:50:00,
2013-11-21 14:55:00,61.3,50.2,30.43,East,82,0.0,0.0,67,0.00,,,0.00,Wunderground v.1.15,2013-11-21 19:55:00,
2013-11-21 15:00:00,61.2,50.2,30.43,East,82,0.0,0.0,67,0.00,,,0.00,Wunderground v.1.15,2013-11-21 20:00:00,
2013-11-21 15:10:00,60.8,50.6,30.43,East,82,0.0,0.0,69,0.00,,,0.00,Wunderground v.1.15,2013-11-21 20:10:00,
2013-11-21 15:15:00,60.7,50.1,30.43,East,82,0.0,0.0,68,0.00,,,0.00,Wunderground v.1.15,2013-11-21 20:15:00,
2013-11-21 15:20:00,60.5,50.3,30.43,East,82,0.0,0.0,69,0.00,,,0.00,Wunderground v.1.15,2013-11-21 20:20:00,
2013-11-21 15:25:00,60.4,50.2,30.43,East,82,0.0,0.0,69,0.00,,,0.00,Wunderground v.1.15,2013-11-21 20:25:00,
2013-11-21 15:30:00,60.3,50.5,30.43,East,82,0.0,0.0,70,0.00,,,0.00,Wunderground v.1.15,2013-11-21 20:30:00,
2013-11-21 15:35:00,60.3,50.5,30.43,East,82,0.0,0.0,70,0.00,,,0.00,Wunderground v.1.15,2013-11-21 20:35:00,
2013-11-21 15:45:00,60.2,50.4,30.43,ENE,65,0.0,0.0,70,0.00,,,0.00,Wunderground v.1.15,2013-11-21 20:45:00,
2013-11-21 15:55:00,60.2,51.1,30.43,ENE,65,0.0,0.0,72,0.00,,,0.00,Wunderground v.1.15,2013-11-21 20:55:00,
2013-11-21 16:00:00,60.1,51.4,30.43,ENE,65,0.0,0.0,73,0.00,,,0.00,Wunderground v.1.15,2013-11-21 21:00:00,
2013-11-21 16:10:00,59.8,51.1,30.43,ENE,65,0.0,0.0,73,0.00,,,0.00,Wunderground v.1.15,2013-11-21 21:10:00,
2013-11-21 16:20:00,59.7,51.0,30.42,ENE,65,0.0,0.0,73,0.00,,,0.00,Wunderground v.1.15,2013-11-21 21:20:00,
2013-11-21 16:30:00,59.9,50.8,30.42,ENE,65,0.0,0.0,72,0.00,,,0.00,Wunderground v.1.15,2013-11-21 21:30:00,
2013-11-21 16:35:00,59.9,50.8,30.42,North,5,1.0,3.0,72,0.00,,,0.00,Wunderground v.1.15,2013-11-21 21:35:00,
2013-11-21 16:40:00,59.8,50.8,30.43,NNW,346,1.0,1.0,72,0.00,,,0.00,Wunderground v.1.15,2013-11-21 21:40:00,
2013-11-21 16:45:00,59.5,50.8,30.43,NNW,331,1.0,1.0,73,0.00,,,0.00,Wunderground v.1.15,2013-11-21 21:45:00,
2013-11-21 16:50:00,59.3,50.6,30.43,NNW,331,1.0,1.0,73,0.00,,,0.00,Wunderground v.1.15,2013-11-21 21:50:00,
2013-11-21 16:55:00,58.9,50.6,30.43,NNW,331,0.0,1.0,74,0.00,,,0.00,Wunderground v.1.15,2013-11-21 21:55:00,
2013-11-21 17:05:00,58.1,50.6,30.43,NNW,331,0.0,0.0,76,0.00,,,0.00,Wunderground v.1.15,2013-11-21 22:05:00,
2013-11-21 17:10:00,57.7,50.5,30.44,NNW,331,0.0,0.0,77,0.00,,,0.00,Wunderground v.1.15,2013-11-21 22:10:00,
2013-11-21 17:15:00,57.1,50.3,30.44,NNW,331,0.0,0.0,78,0.00,,,0.00,Wunderground v.1.15,2013-11-21 22:15:00,
2013-11-21 17:20:00,56.7,50.3,30.44,NNW,331,0.0,0.0,79,0.00,,,0.00,Wunderground v.1.15,2013-11-21 22:20:00,
2013-11-21 17:25:00,56.4,50.0,30.44,NNW,331,0.0,0.0,79,0.00,,,0.00,Wunderground v.1.15,2013-11-21 22:25:00,
2013-11-21 17:30:00,56.2,50.1,30.44,NNW,331,0.0,0.0,80,0.00,,,0.00,Wunderground v.1.15,2013-11-21 22:30:00,
2013-11-21 17:40:00,56.2,50.1,30.44,NNW,331,0.0,0.0,80,0.00,,,0.00,Wunderground v.1.15,2013-11-21 22:40:00,
2013-11-21 17:45:00,56.4,50.3,30.44,NNW,331,0.0,0.0,80,0.00,,,0.00,Wunderground v.1.15,2013-11-21 22:45:00,
2013-11-21 17:50:00,56.6,50.5,30.44,NNW,331,0.0,0.0,80,0.00,,,0.00,Wunderground v.1.15,2013-11-21 22:50:00,
2013-11-21 17:55:00,56.7,50.6,30.44,NNW,331,0.0,0.0,80,0.00,,,0.00,Wunderground v.1.15,2013-11-21 22:55:00,
2013-11-21 18:00:00,56.7,50.6,30.44,NNW,331,0.0,0.0,80,0.00,,,0.00,Wunderground v.1.15,2013-11-21 23:00:00,
2013-11-21 18:10:00,56.6,50.5,30.44,NNW,331,0.0,0.0,80,0.00,,,0.00,Wunderground v.1.15,2013-11-21 23:10:00,
2013-11-21 18:15:00,56.4,50.3,30.43,NNW,331,0.0,0.0,80,0.00,,,0.00,Wunderground v.1.15,2013-11-21 23:15:00,
2013-11-21 18:20:00,56.2,50.1,30.43,NNW,331,0.0,0.0,80,0.00,,,0.00,Wunderground v.1.15,2013-11-21 23:20:00,
2013-11-21 18:25:00,56.0,49.9,30.43,NNW,331,0.0,0.0,80,0.00,,,0.00,Wunderground v.1.15,2013-11-21 23:25:00,
2013-11-21 18:30:00,55.6,49.5,30.43,NNW,331,0.0,0.0,80,0.00,,,0.00,Wunderground v.1.15,2013-11-21 23:30:00,
2013-11-21 18:40:00,54.9,49.5,30.43,NNW,331,0.0,0.0,82,0.00,,,0.00,Wunderground v.1.15,2013-11-21 23:40:00,
2013-11-21 18:45:00,54.4,49.0,30.43,NNW,331,0.0,0.0,82,0.00,,,0.00,Wunderground v.1.15,2013-11-21 23:45:00,
2013-11-21 18:50:00,54.1,49.1,30.43,NNW,331,0.0,0.0,83,0.00,,,0.00,Wunderground v.1.15,2013-11-21 23:50:00,
2013-11-21 18:55:00,53.8,49.1,30.43,NNW,331,0.0,0.0,84,0.00,,,0.00,Wunderground v.1.15,2013-11-21 23:55:00,
2013-11-21 19:00:00,53.6,49.2,30.43,NNW,331,0.0,0.0,85,0.00,,,0.00,Wunderground v.1.15,2013-11-22 00:00:00,
2013-11-21 19:10:00,53.2,48.8,30.44,NNW,331,0.0,0.0,85,0.00,,,0.00,Wunderground v.1.15,2013-11-22 00:10:00,
2013-11-21 19:15:00,53.0,48.6,30.44,NNW,331,0.0,0.0,85,0.00,,,0.00,Wunderground v.1.15,2013-11-22 00:15:00,
2013-11-21 19:20:00,52.7,48.6,30.44,NNW,331,0.0,0.0,86,0.00,,,0.00,Wunderground v.1.15,2013-11-22 00:20:00,
2013-11-21 19:25:00,52.4,48.3,30.44,NNW,331,0.0,0.0,86,0.00,,,0.00,Wunderground v.1.15,2013-11-22 00:25:00,
2013-11-21 19:50:00,51.7,48.3,30.44,NNW,331,0.0,0.0,88,0.00,,,0.00,Wunderground v.1.15,2013-11-22 00:50:00,
2013-11-21 19:55:00,51.6,48.2,30.44,NNW,331,0.0,0.0,88,0.00,,,0.00,Wunderground v.1.15,2013-11-22 00:55:00,
2013-11-21 20:05:00,51.5,48.4,30.43,NNW,331,0.0,0.0,89,0.00,,,0.00,Wunderground v.1.15,2013-11-22 01:05:00,
2013-11-21 20:10:00,51.5,48.4,30.43,NNW,331,0.0,0.0,89,0.00,,,0.00,Wunderground v.1.15,2013-11-22 01:10:00,
2013-11-21 20:15:00,51.5,48.4,30.43,NNW,331,0.0,0.0,89,0.00,,,0.00,Wunderground v.1.15,2013-11-22 01:15:00,
2013-11-21 20:20:00,51.5,48.4,30.43,NNW,331,0.0,0.0,89,0.00,,,0.00,Wunderground v.1.15,2013-11-22 01:20:00,
2013-11-21 20:25:00,51.5,48.4,30.43,NNW,331,0.0,0.0,89,0.00,,,0.00,Wunderground v.1.15,2013-11-22 01:25:00,
2013-11-21 20:30:00,51.5,48.4,30.44,NNW,331,0.0,0.0,89,0.00,,,0.00,Wunderground v.1.15,2013-11-22 01:30:00,
2013-11-21 20:40:00,51.8,49.0,30.43,NNW,331,0.0,0.0,90,0.00,,,0.00,Wunderground v.1.15,2013-11-22 01:40:00,
2013-11-21 20:45:00,52.0,49.2,30.43,NNW,331,0.0,0.0,90,0.00,,,0.00,Wunderground v.1.15,2013-11-22 01:45:00,
2013-11-21 20:50:00,52.0,48.9,30.43,NNW,331,0.0,0.0,89,0.00,,,0.00,Wunderground v.1.15,2013-11-22 01:50:00,
2013-11-21 20:55:00,52.1,49.0,30.43,NNW,331,0.0,0.0,89,0.00,,,0.00,Wunderground v.1.15,2013-11-22 01:55:00,
2013-11-21 21:00:00,51.9,48.8,30.43,NNW,331,0.0,0.0,89,0.00,,,0.00,Wunderground v.1.15,2013-11-22 02:00:00,
2013-11-21 21:10:00,51.6,48.2,30.43,NNW,331,0.0,0.0,88,0.00,,,0.00,Wunderground v.1.15,2013-11-22 02:10:00,
2013-11-21 21:15:00,51.4,48.3,30.44,NNW,331,0.0,0.0,89,0.00,,,0.00,Wunderground v.1.15,2013-11-22 02:15:00,
2013-11-21 21:20:00,51.3,48.2,30.44,NNW,331,0.0,0.0,89,0.00,,,0.00,Wunderground v.1.15,2013-11-22 02:20:00,
2013-11-21 21:25:00,51.0,47.9,30.44,NNW,331,0.0,0.0,89,0.00,,,0.00,Wunderground v.1.15,2013-11-22 02:25:00,
2013-11-21 21:30:00,50.7,47.6,30.44,NNW,331,0.0,0.0,89,0.00,,,0.00,Wunderground v.1.15,2013-11-22 02:30:00,
2013-11-21 21:35:00,50.5,47.4,30.43,NNW,331,0.0,0.0,89,0.00,,,0.00,Wunderground v.1.15,2013-11-22 02:35:00,
2013-11-21 21:40:00,50.1,47.0,30.43,NNW,331,0.0,0.0,89,0.00,,,0.00,Wunderground v.1.15,2013-11-22 02:40:00,
2013-11-21 21:45:00,50.1,47.3,30.43,NNW,331,0.0,0.0,90,0.00,,,0.00,Wunderground v.1.15,2013-11-22 02:45:00,
2013-11-21 21:50:00,50.1,47.3,30.43,NNW,331,0.0,0.0,90,0.00,,,0.00,Wunderground v.1.15,2013-11-22 02:50:00,
2013-11-21 21:55:00,50.2,47.7,30.43,NNW,331,0.0,0.0,91,0.00,,,0.00,Wunderground v.1.15,2013-11-22 02:55:00,
2013-11-21 22:00:00,50.4,47.9,30.43,NNW,331,0.0,0.0,91,0.00,,,0.00,Wunderground v.1.15,2013-11-22 03:00:00,
2013-11-21 22:10:00,50.6,48.1,30.43,NNW,331,0.0,0.0,91,0.00,,,0.00,Wunderground v.1.15,2013-11-22 03:10:00,
2013-11-21 22:15:00,50.8,48.3,30.42,NNW,331,0.0,0.0,91,0.00,,,0.00,Wunderground v.1.15,2013-11-22 03:15:00,
2013-11-21 22:20:00,50.9,48.4,30.43,NNW,331,0.0,0.0,91,0.00,,,0.00,Wunderground v.1.15,2013-11-22 03:20:00,
2013-11-21 22:25:00,51.0,48.5,30.43,NNW,331,0.0,0.0,91,0.00,,,0.00,Wunderground v.1.15,2013-11-22 03:25:00,
2013-11-21 22:30:00,51.2,48.7,30.42,NNW,331,0.0,0.0,91,0.00,,,0.00,Wunderground v.1.15,2013-11-22 03:30:00,
2013-11-21 22:35:00,51.2,48.7,30.42,NNW,331,0.0,0.0,91,0.00,,,0.00,Wunderground v.1.15,2013-11-22 03:35:00,
2013-11-21 22:45:00,51.4,48.9,30.42,NNW,331,0.0,0.0,91,0.00,,,0.00,Wunderground v.1.15,2013-11-22 03:45:00,
2013-11-21 22:55:00,51.3,48.8,30.42,NNW,331,0.0,0.0,91,0.00,,,0.00,Wunderground v.1.15,2013-11-22 03:55:00,
2013-11-21 23:00:00,51.2,48.7,30.42,NNW,331,0.0,0.0,91,0.00,,,0.00,Wunderground v.1.15,2013-11-22 04:00:00,
2013-11-21 23:10:00,50.8,48.3,30.42,NNW,331,0.0,0.0,91,0.00,,,0.00,Wunderground v.1.15,2013-11-22 04:10:00,
2013-11-21 23:20:00,50.5,48.0,30.42,NNW,331,0.0,0.0,91,0.00,,,0.00,Wunderground v.1.15,2013-11-22 04:20:00,
2013-11-21 23:30:00,50.3,47.8,30.42,NNW,331,0.0,0.0,91,0.00,,,0.00,Wunderground v.1.15,2013-11-22 04:30:00,
2013-11-21 23:35:00,50.0,47.5,30.42,NNW,331,0.0,0.0,91,0.00,,,0.00,Wunderground v.1.15,2013-11-22 04:35:00,
2013-11-21 23:40:00,49.7,47.2,30.42,NNW,331,0.0,0.0,91,0.00,,,0.00,Wunderground v.1.15,2013-11-22 04:40:00,
2013-11-21 23:45:00,49.5,47.3,30.42,NNW,331,0.0,0.0,92,0.00,,,0.00,Wunderground v.1.15,2013-11-22 04:45:00,
2013-11-21 23:50:00,49.5,47.3,30.42,NNW,331,0.0,0.0,92,0.00,,,0.00,Wunderground v.1.15,2013-11-22 04:50:00,
2013-11-21 23:55:00,49.3,47.1,30.42,NNW,331,0.0,0.0,92,0.00,,,0.00,Wunderground v.1.15,2013-11-22 04:55:00,